[[{"header":{"parameterUnit":"m.s-1","parameterCategory":1,"la1":30.2992,"la2":30.254,"lo1":-89.0895,"lo2":-89.0443,"dy":0.0025,"dx":0.0025,"nx":19,"ny":19,"refTime":"2026-05-02T03:00:00:Z","depth":0,"parameterNumber":2,"parameterNumberName":"U-component_of_WINDS"},"data":[0,0,0,-3.3946,-3.3952,-3.4226,-3.4227,-3.4581,-3.4584,0,0,0,0,0,0,0,0,0,0,0,-3.3865,-3.3868,-3.3945,-3.3952,-3.4226,-3.4227,-3.458,-3.4584,0,0,0,0,0,0,0,0,0,0,0,-3.3864,-3.3867,-3.387,-3.3953,-3.4226,-3.4227,-3.458,-3.4372,0,0,0,0,0,0,0,0,0,0,-3.4105,-3.4031,-3.3866,-3.387,-3.3955,-3.4225,-3.4227,-3.4362,-3.4385,-3.4458,0,-3.4521,0,-3.4558,-3.4608,-3.4609,0,0,0,-3.3952,-3.4012,-3.4085,-3.3871,-3.3957,-3.4225,-3.4102,-3.4375,-3.4401,-3.4488,-3.4526,-3.454,-3.4564,-3.461,-3.4612,-3.503,-3.5031,0,0,-3.3937,-3.3915,-3.4067,-3.4102,-3.4059,-3.4094,-3.4111,-3.439,-3.4431,-3.4528,-3.4548,-3.457,-3.4613,-3.4615,-3.5028,-3.503,0,0,0,-3.3894,-3.3905,-3.3971,-3.4088,-3.4137,-3.4102,-3.4122,-3.4419,-3.4442,-3.4552,-3.4574,-3.4615,-3.4619,-3.5026,-3.5029,-3.5105,0,0,0,-3.3884,-3.3879,-3.3964,-3.3954,-3.4132,-3.4281,-3.4144,-3.4423,-3.4455,-3.4572,-3.4615,-3.4622,-3.5023,-3.5027,-3.5098,-3.5146,0,0,0,-3.3847,-3.3875,-3.3915,-3.3952,-3.4069,-3.4277,-3.4316,-3.443,-3.4469,-3.4609,-3.4623,-3.5022,-3.5027,-3.5092,-3.5136,-3.5251,0,0,0,-3.3802,-3.3979,-3.3916,-3.4122,-3.4067,-3.4321,-3.4315,-3.4506,-3.4635,-3.4616,-3.5024,-3.5028,-3.5091,-3.513,-3.5244,-3.5344,-3.5383,0,0,-3.4013,-3.4004,-3.4127,-3.4078,-3.4339,-3.4281,-3.4553,-3.4693,-3.4726,-3.4927,-3.4937,-3.5101,-3.5135,-3.5249,-3.5607,-3.5638,0,0,0,-3.4187,-3.4276,-3.4349,-3.4471,-3.4581,-3.468,-3.4779,-3.4831,-3.5002,-3.4824,-3.5173,-3.5194,-3.5262,-3.5311,-3.5337,-3.5397,-3.5049,-3.5049,-3.5048,-3.4457,-3.449,-3.4696,-3.4762,-3.488,-3.4981,-3.508,-3.5167,-3.5166,-3.5247,-3.5308,-3.5521,-3.5578,-3.5598,-3.566,-3.5362,-3.5362,-3.5362,-3.5363,-3.4772,-3.4904,-3.4896,-3.5095,-3.5128,-3.5296,-3.54,-3.5393,-3.5555,-3.5478,-3.5539,-3.5455,-3.563,-3.5687,-3.5369,-3.5368,-3.5367,-3.5366,-3.5366,-3.4955,-3.5023,-3.5082,-3.5262,-3.5397,-3.5457,-3.5612,-3.5637,-3.5661,-3.5722,-3.5789,-3.5788,-3.5792,-3.5752,-3.5752,-3.5753,-3.5754,-3.5754,-3.5755,-3.5121,-3.5185,-3.5313,-3.5444,-3.5526,-3.5636,-3.5739,-3.582,-3.5917,-3.5923,-3.5924,-3.5915,-3.5641,-3.5572,-3.5767,-3.5764,-3.5763,-3.5762,-3.5761,-3.5432,-3.5366,-3.5563,-3.5645,-3.5801,-3.5934,-3.5963,-3.6127,-3.6198,-3.6274,-3.6252,-3.6044,-3.6036,-3.6016,-3.596,-3.6243,-3.6243,-3.6243,-3.6243,-3.5588,-3.5585,-3.5793,-3.5922,-3.6051,-3.6097,-3.6321,-3.6402,-3.6476,-3.6522,-3.6484,-3.6411,-3.6389,-3.6395,-3.6366,-3.6314,-3.6681,-3.6681,-3.6682,-3.5782,-3.5793,-3.5978,-3.6048,-3.6172,-3.6279,-3.649,-3.664,-3.671,-3.67,-3.656,-3.6541,-3.6423,-3.6382,-3.6371,-3.6326,-3.6231,0,0]},{"header":{"parameterUnit":"m.s-1","parameterCategory":1,"la1":30.2992,"la2":30.254,"lo1":-89.0895,"lo2":-89.0443,"dy":0.0025,"dx":0.0025,"nx":19,"ny":19,"refTime":"2026-05-02T03:00:00:Z","depth":0,"parameterNumber":3,"parameterNumberName":"V-component_of_WINDS"},"data":[0,0,0,-8.9145,-8.9148,-8.9276,-8.9276,-8.9469,-8.9471,0,0,0,0,0,0,0,0,0,0,0,-8.9127,-8.913,-8.9144,-8.9148,-8.9276,-8.9276,-8.9468,-8.9471,0,0,0,0,0,0,0,0,0,0,0,-8.9126,-8.9129,-8.9132,-8.9149,-8.9276,-8.9276,-8.9468,-8.936,0,0,0,0,0,0,0,0,0,0,-8.9231,-8.9236,-8.9128,-8.9132,-8.915,-8.9276,-8.9276,-8.9354,-8.9367,-8.9424,0,-8.9483,0,-8.9481,-8.9486,-8.9486,0,0,0,-8.9132,-8.9226,-8.9242,-8.9132,-8.9151,-8.9276,-8.9214,-8.9361,-8.9375,-8.9441,-8.9486,-8.9492,-8.9484,-8.9487,-8.9488,-8.988,-8.9882,0,0,-8.9125,-8.9161,-8.9232,-8.9252,-8.9238,-8.921,-8.9218,-8.9369,-8.9419,-8.9486,-8.9496,-8.9487,-8.9489,-8.949,-8.9877,-8.988,0,0,0,-8.9115,-8.9157,-8.9168,-8.9245,-8.9266,-8.9214,-8.9223,-8.9412,-8.9413,-8.9498,-8.9489,-8.949,-8.9493,-8.9874,-8.9878,-9.0043,0,0,0,-8.911,-8.9151,-8.9166,-8.919,-8.9264,-8.9342,-8.9264,-8.9403,-8.9419,-8.9488,-8.949,-8.9495,-8.9871,-8.9877,-9.0033,-9.0115,0,0,0,-8.9112,-8.9151,-8.9177,-8.9191,-8.9248,-8.9338,-8.9348,-8.9406,-8.9415,-8.9487,-8.9495,-8.987,-8.9876,-9.0023,-9.0099,-9.0229,0,0,0,-8.9123,-8.9321,-8.918,-8.9397,-8.9247,-8.9441,-8.9346,-8.9488,-8.9569,-8.9491,-8.9872,-8.9878,-9.002,-9.0089,-9.0219,-9.0345,-9.0401,0,0,-8.9392,-8.9354,-8.9479,-8.9357,-8.9586,-8.9418,-8.9669,-8.9708,-8.9679,-8.9814,-8.9823,-9.0036,-9.0098,-9.0227,-9.0703,-9.0748,0,0,0,-8.9576,-8.9667,-8.9719,-8.98,-8.9836,-8.9873,-8.987,-8.9884,-8.9996,-8.9757,-9.0117,-9.0152,-9.0226,-9.0285,-9.0323,-9.0384,-8.9907,-8.9906,-8.9905,-9.0009,-8.9965,-9.0168,-9.0139,-9.0218,-9.0213,-9.0272,-9.029,-9.022,-9.0306,-9.0346,-9.064,-9.071,-9.0738,-9.0802,-9.0408,-9.0409,-9.0409,-9.041,-9.04,-9.052,-9.0424,-9.0587,-9.0538,-9.0672,-9.0674,-9.062,-9.0737,-9.0606,-9.0669,-9.0531,-9.0789,-9.0843,-9.0422,-9.042,-9.0418,-9.0417,-9.0416,-9.0678,-9.0728,-9.0744,-9.0856,-9.0946,-9.0908,-9.1025,-9.0975,-9.0929,-9.0991,-9.1027,-9.1024,-9.1015,-9.1012,-9.1013,-9.1014,-9.1015,-9.1015,-9.1016,-9.0962,-9.0974,-9.108,-9.1135,-9.118,-9.1233,-9.1229,-9.1271,-9.1304,-9.1258,-9.1258,-9.1179,-9.0823,-9.0735,-9.1032,-9.1029,-9.1027,-9.1025,-9.1024,-9.1374,-9.1273,-9.1438,-9.1483,-9.1543,-9.1635,-9.157,-9.166,-9.1686,-9.1746,-9.1654,-9.1399,-9.1355,-9.1324,-9.1251,-9.1663,-9.1663,-9.1663,-9.1663,-9.161,-9.1583,-9.174,-9.1816,-9.1883,-9.1841,-9.2026,-9.2024,-9.2006,-9.2019,-9.1952,-9.185,-9.1821,-9.1795,-9.1754,-9.1684,-9.2198,-9.2198,-9.2199,-9.186,-9.1838,-9.2007,-9.199,-9.2033,-9.207,-9.2241,-9.233,-9.2287,-9.2219,-9.2029,-9.2006,-9.1841,-9.179,-9.1718,-9.1655,-9.1527,0,0]}]]